SCP
0 0 -0 0 0 0 0 0 0 0 0 0 0 0 0 0 0 0 0 0 0 0 0 0 0 0 0 0 0 0 0 0 0 0 0 0 0 0 0 0 0 0 0 0 0
0 0 -0 0 0 0 0 0 0 0 0 0 0 0 0 0 0 0 0 0 0 0 0 0 0 0 0 0 0 0 0 0 0 0 0 0 0 0 0 0 0 0 0 0 0
0 0 -0 -0 0 0 0 0 0 0 0 0 0 0 0 0 0 0 0 0 0 0 0 0 0 0 0 0 0 0 0 0 0 0 0 0 0 0 0 0 0 0 0 0 0
0 0 0 -0 0 0 0 0 0 0 0 0 0 0 0 0 0 0 0 0 0 0 0 0 0 0 0 0 0 0 0 0 0 0 0 0 0 0 0 0 0 0 0 0 0
0 0 0 0 0 0 0 0 0 0 0 0 0 0 0 0 0 0 0 0 0 0 0 0 0 0 0 0 0 0 0 0 0 0 0 0 0 0 0 0 0 0 0 0 0
0 0 0 0 -0 0 0 0 0 0 0 0 0 0 0 0 0 0 0 0 0 0 0 0 0 0 0 0 0 0 0 0 0 0 0 0 0 0 0 0 0 0 0 0 0
0 0 0 0 0 0 0 0 0 0 0 0 0 0 0 0 0 0 0 0 0 0 0 0 0 0 0 0 0 0 0 0 0 0 0 0 0 0 0 0 0 0 0 0 0
0 0 0 0 0 0 0 0 0 0 0 0 0 0 0 0 0 0 0 0 0 0 0 0 0 0 0 0 0 0 0 0 0 0 0 0 0 0 0 0 0 0 0 0 0
0 0 0 0 0 0 0 0 0 0 0 0 0 0 0 0 0 0 0 0 0 0 0 0 0 0 0 0 0 0 0 0 0 0 0 0 0 0 0 0 0 0 0 0 0
0 0 0 0 0 0 0 0 0 0 0 0 0 0 0 0 0 0 0 0 0 0 0 0 0 0 0 0 0 0 0 0 0 0 0 0 0 0 0 0 0 0 0 0 0
0 0 0 0 0 0 0 1 1 0 0 0 0 0 0 0 0 0 0 0 0 0 0 0 0 0 0 0 0 0 0 0 0 0 0 0 0 0 0 0 0 0 0 0 0
0 0 0 0 0 0 0 0 0 0 0 0 0 0 0 0 0 0 0 0 0 0 0 0 0 0 0 0 0 0 0 0 0 0 0 0 0 0 0 0 0 0 0 0 0
0 0 0 0 0 0 0 0 0 0 0 0 0 0 0 0 0 0 0 0 0 0 0 0 0 0 0 0 0 0 0 0 0 0 0 0 0 0 0 0 0 0 0 0 0
0 0 0 -0 0 0 0 0 0 0 0 0 0 0 0 0 0 0 0 0 0 0 0 0 0 0 0 0 0 0 0 0 0 0 0 0 0 0 0 0 0 0 0 0 0
0 0 0 0 0 0 0 0 0 0 0 0 0 0 0 0 0 0 0 0 0 0 0 0 0 0 0 0 0 0 0 0 0 0 0 0 0 -0 0 0 0 0 0 0 0
0 0 -0 0 0 0 0 0 0 0 0 0 0 0 0 0 0 0 0 0 0 0 0 0 0 0 0 0 0 0 0 0 0 0 0 0 0 0 0 0 0 0 0 0 0
0 -0 0 0 0 0 0 0 0 0 0 0 0 0 0 0 0 0 0 0 0 0 0 0 0 0 0 0 0 0 0 0 0 0 0 0 0 0 0 0 0 0 0 0 0
0 -0 0 0 0 0 0 0 0 0 0 0 0 0 0 0 0 0 0 0 0 0 0 0 0 0 0 0 0 0 0 0 0 0 0 0 0 0 0 0 0 0 0 0 0
-0 0 0 0 0 0 0 0 0 0 0 0 0 0 0 0 0 0 0 0 0 0 0 0 0 0 0 0 0 0 0 0 0 0 0 0 0 0 0 0 0 0 0 0 0
0 0 0 0 0 0 0 0 0 0 0 0 0 0 0 0 0 0 0 0 0 0 0 0 0 0 0 0 0 0 0 0 0 0 0 0 0 0 0 0 0 0 0 0 0
0 0 0 0 0 0 0 0 0 0 0 0 0 0 0 0 0 0 0 0 0 0 0 0 0 0 0 0 0 0 0 0 0 0 0 0 0 0 0 0 0 0 0 0 0
0 0 0 0 0 0 0 0 0 0 0 0 0 0 0 0 0 0 0 0 0 0 0 0 0 0 0 0 0 0 0 0 0 0 0 0 0 0 0 0 0 0 0 0 0
0 0 0 0 0 0 0 0 0 0 0 0 0 0 0 0 0 0 0 0 0 0 0 0 0 0 0 0 0 0 0 0 0 0 0 0 0 0 0 0 0 0 0 0 0
0 0 0 0 0 0 0 0 0 0 0 0 0 0 0 0 0 0 0 0 0 0 0 0 0 0 0 0 0 0 0 0 0 0 0 0 0 0 0 0 0 0 0 0 0
0 0 0 0 0 0 0 0 0 0 0 0 0 0 0 0 0 0 0 0 0 0 0 0 0 0 0 0 0 0 0 0 0 0 0 0 0 0 0 0 0 0 0 0 0
0 0 0 0 0 0 0 0 0 0 0 0 0 0 0 0 0 0 0 0 0 0 0 0 0 0 0 0 0 0 0 0 0 0 0 0 0 0 0 0 0 0 0 0 0
0 0 0 0 0 0 0 0 0 0 0 0 0 0 0 0 0 0 0 0 0 0 0 0 0 0 0 0 0 0 0 0 0 0 0 0 0 0 0 0 0 0 0 0 0
Wind_Speed_500mb
62 66 61 83 88 92 81 84 82 74 74 55 48 41 43 43 46 46 59 53 63 46 51 32 18 17 26 20 15 13 6 6 12 11 7 12 10 9 13 20 18 16 11 16 50
62 54 70 88 91 97 93 79 89 97 74 65 54 46 46 44 45 54 57 47 32 52 50 52 37 19 13 17 10 7 5 13 13 10 6 12 11 24 14 22 14 19 18 30 55
68 62 74 75 85 88 90 83 88 91 72 69 60 54 46 44 35 59 55 48 46 44 41 54 44 24 3 12 6 8 8 9 7 10 8 8 14 22 17 6 25 38 34 44 60
70 65 65 84 102 58 85 88 76 92 83 70 65 58 46 45 16 20 38 52 54 47 41 42 30 28 10 12 17 7 22 14 7 7 7 8 9 16 30 16 37 32 38 51 64
55 70 64 75 90 86 93 90 75 99 92 75 68 62 52 41 28 9 31 49 62 58 53 50 38 28 14 13 13 6 4 16 23 12 15 12 24 14 36 24 22 34 43 53 61
61 60 70 73 86 99 100 101 85 101 97 81 74 67 59 25 34 16 26 51 63 67 57 50 30 25 16 9 14 2 18 11 15 18 10 9 7 14 21 27 21 37 47 55 60
51 59 64 71 85 91 104 101 89 103 99 84 77 71 61 58 22 30 30 51 57 67 55 44 26 33 17 12 8 2 4 16 12 7 8 10 7 17 18 37 28 44 50 56 60
57 61 70 76 73 94 108 96 84 103 97 89 77 70 20 62 25 30 32 52 50 53 48 45 33 26 9 16 6 12 12 6 3 8 5 15 15 24 25 33 37 49 53 58 60
64 57 66 78 61 87 102 95 84 97 96 87 81 47 16 37 38 35 40 57 51 46 36 29 22 11 10 12 5 9 9 8 8 5 0 5 9 14 25 33 38 53 58 59 58
62 66 62 79 72 87 104 91 90 94 93 87 56 23 25 50 48 45 50 53 57 47 38 28 16 8 5 8 24 12 10 7 9 5 2 7 14 15 18 38 51 49 55 61 62
70 66 57 70 81 97 111 95 97 54 104 40 60 14 36 51 53 56 60 57 44 38 11 15 9 29 14 7 6 9 8 9 6 3 6 12 15 25 19 25 32 44 55 64 63
67 73 62 69 74 118 112 116 111 48 34 33 72 14 61 78 30 65 69 32 26 14 15 9 23 8 16 15 8 5 7 10 8 7 1 5 19 23 15 19 45 59 58 63 63
69 72 63 77 79 117 121 103 85 97 17 4 63 31 63 65 30 63 70 21 13 14 13 18 8 19 14 9 17 6 8 8 4 4 3 11 13 18 8 31 45 46 62 63 60
64 70 79 77 96 120 107 103 85 88 10 16 29 23 41 46 14 59 62 26 7 12 11 9 7 17 9 11 9 11 9 6 10 7 8 2 16 18 12 19 21 61 51 65 67
67 73 78 90 121 126 92 108 99 63 17 24 19 52 52 39 51 31 55 14 16 12 14 13 16 10 16 11 12 7 8 6 7 7 7 7 7 12 4 19 17 44 65 66 73
69 73 79 104 98 129 106 113 89 12 13 22 18 18 28 10 9 42 31 10 21 10 9 13 6 17 19 14 23 17 9 11 9 7 9 34 12 10 16 21 14 31 71 75 82
68 86 91 143 94 125 125 101 15 19 24 18 18 26 32 11 11 21 23 12 16 16 15 7 7 8 13 12 8 16 22 4 4 8 17 5 12 38 13 15 14 24 47 55 68
71 88 91 112 125 125 119 33 19 15 22 8 19 34 17 16 9 11 23 27 13 9 14 20 14 17 10 12 13 30 27 11 14 9 6 7 15 14 21 33 39 39 38 32 40
92 96 108 87 137 140 91 32 21 35 19 25 28 34 10 16 16 15 32 41 23 18 13 12 8 4 6 9 19 12 33 17 9 5 4 10 14 19 17 20 30 45 40 46 32
117 112 105 112 142 118 37 18 11 19 27 44 23 15 25 44 14 20 34 30 22 16 4 13 8 1 5 9 3 22 20 12 2 6 8 8 10 12 3 20 24 22 53 50 40
99 42 84 128 130 88 37 8 12 23 54 17 12 15 23 34 14 21 29 5 24 15 8 10 8 0 8 12 15 8 15 6 7 8 9 2 12 15 23 9 14 21 29 33 39
85 10 110 147 27 23 32 20 15 18 9 12 12 10 34 41 14 27 30 28 50 35 19 12 11 8 12 4 4 4 15 24 16 25 4 5 15 7 14 6 9 21 26 29 31
40 35 100 140 20 24 20 8 9 18 11 11 10 8 13 27 14 9 21 33 60 38 32 17 2 6 9 7 3 8 5 8 5 6 16 10 23 4 7 9 8 14 12 22 28
22 14 38 75 21 47 49 16 13 11 7 11 14 18 21 18 4 18 16 11 57 31 41 35 7 16 22 11 16 13 15 13 11 6 11 19 23 13 8 5 11 10 7 17 30
15 16 33 29 20 49 37 13 19 17 2 15 7 32 25 11 8 10 10 7 7 28 18 15 17 9 6 7 9 13 24 24 21 45 22 49 20 20 15 13 16 9 7 15 36
12 25 42 35 36 58 41 38 24 11 14 12 25 35 17 19 19 15 18 9 14 3 16 2 6 7 5 6 7 5 17 32 46 38 36 5 16 8 5 20 17 20 21 26 38
11 54 64 49 40 45 54 60 29 30 12 8 35 19 13 15 20 38 25 34 28 27 14 13 10 6 8 3 7 8 26 29 24 22 19 27 23 8 9 14 26 34 36 36 40
Wind_Direction_500mb
234 230 247 240 223 211 211 213 222 221 211 208 199 204 213 221 229 230 225 219 220 217 208 191 191 193 190 194 160 136 89 188 194 158 234 168 162 165 179 156 169 201 181 173 169
233 233 223 225 230 215 212 212 212 217 207 205 198 199 214 218 229 236 226 223 222 218 213 208 205 190 177 164 160 109 137 213 208 187 192 188 186 170 165 173 204 203 198 173 175
230 233 221 227 236 215 210 209 210 217 202 202 195 209 209 219 223 244 233 222 209 206 206 201 207 201 25 155 140 138 217 203 247 197 199 204 210 182 158 218 206 199 193 178 180
231 231 226 221 227 213 211 209 210 211 206 201 197 203 204 204 194 230 221 212 195 188 183 177 194 194 165 175 170 172 229 207 193 216 157 198 199 197 191 215 221 215 208 185 188
235 229 228 225 228 231 210 207 207 206 205 200 198 200 189 191 217 219 189 188 187 183 183 172 172 174 174 188 151 188 255 231 232 263 284 208 207 205 217 216 213 203 200 196 197
242 231 229 226 227 230 211 207 206 202 203 200 197 195 190 200 218 222 189 182 188 188 189 191 189 181 164 188 178 283 244 286 264 248 237 220 197 174 234 209 207 201 202 201 203
246 237 231 225 223 223 204 203 201 201 199 198 195 194 193 212 223 218 200 193 188 193 188 184 197 189 154 123 127 205 61 313 256 229 225 191 252 208 212 204 206 200 204 203 207
240 237 230 229 228 220 201 197 198 200 197 197 193 180 194 211 224 208 199 187 186 189 190 178 163 168 162 131 80 152 116 227 299 182 240 144 278 261 201 200 205 204 203 208 211
238 239 231 235 251 224 194 192 197 192 194 193 176 175 187 198 205 198 190 185 183 187 187 194 196 158 147 110 104 350 153 175 295 191 196 139 253 281 216 203 213 212 208 210 218
237 237 236 231 236 208 191 189 189 188 192 178 173 167 197 187 179 179 178 172 160 162 164 172 177 142 137 157 201 169 154 176 206 194 187 197 254 275 252 211 216 218 216 215 220
238 239 235 225 216 198 186 174 171 164 159 159 174 172 174 170 174 173 167 161 159 153 150 178 161 207 185 171 42 161 164 170 196 181 207 229 225 242 255 247 236 223 222 223 226
245 240 231 223 227 185 183 175 179 166 125 166 173 172 157 164 140 167 167 156 155 151 133 118 221 202 138 139 136 149 194 226 302 35 185 298 254 255 197 241 236 229 228 230 234
244 238 224 217 224 186 181 177 178 153 105 59 171 165 161 162 147 168 176 147 112 133 152 163 221 158 160 152 149 173 147 150 205 122 337 333 270 263 236 232 246 244 237 239 237
240 228 219 222 193 182 179 178 163 156 111 168 171 189 159 152 102 166 175 150 152 148 114 160 149 153 145 188 155 188 185 128 96 73 214 243 266 245 243 242 228 241 235 235 236
236 223 214 225 184 181 167 164 159 160 186 151 176 160 158 159 136 174 169 172 154 161 150 191 146 143 203 153 140 165 141 86 82 107 20 236 273 259 211 242 234 241 242 238 239
227 220 207 199 181 184 165 156 151 150 164 176 166 168 136 115 103 146 165 166 145 111 49 182 173 179 184 179 172 148 89 58 47 54 256 238 210 237 211 229 244 235 241 241 242
225 204 210 180 178 176 158 151 146 198 151 153 176 161 144 127 106 149 169 169 160 135 182 142 175 181 160 129 141 153 129 109 200 207 237 102 173 243 253 245 231 233 241 251 251
215 196 205 175 172 171 157 157 178 145 174 163 137 138 142 131 33 126 149 188 233 127 136 173 205 166 189 165 168 184 173 168 178 204 214 131 230 247 224 257 245 247 252 256 260
197 194 198 198 170 163 156 177 176 161 159 129 116 142 130 169 130 138 192 197 186 180 144 144 242 30 150 138 141 161 214 180 104 21 50 202 282 305 234 255 252 252 250 248 255
181 183 182 171 167 160 165 174 123 145 124 144 146 166 161 173 127 170 176 198 195 179 140 189 145 318 143 121 205 187 165 177 152 166 243 264 281 230 287 227 231 233 234 243 235
177 164 172 168 162 163 176 150 107 143 135 141 133 136 160 170 137 179 185 246 172 164 95 137 101 275 149 211 153 136 196 210 170 169 187 255 255 221 218 231 287 286 270 253 234
173 140 160 168 164 185 183 127 107 147 132 105 98 102 163 168 130 182 192 194 181 147 160 188 120 163 195 224 162 188 184 191 204 219 225 181 261 192 239 273 306 304 292 252 225
154 116 162 161 163 167 141 88 101 154 146 137 118 130 139 157 157 173 189 196 171 169 166 177 225 82 15 357 30 199 171 213 119 66 217 157 260 317 326 346 312 306 280 232 213
154 136 163 171 162 170 163 145 121 148 118 94 114 106 116 158 329 175 156 181 186 183 176 156 145 167 193 216 134 187 174 164 156 184 234 236 260 302 308 296 297 303 306 228 221
191 153 155 167 167 175 165 121 130 154 182 138 76 158 145 130 117 150 135 102 148 185 169 163 197 154 157 145 171 188 187 175 194 222 191 249 229 222 248 204 242 275 297 229 222
150 151 169 178 150 165 172 186 163 138 147 180 143 159 139 146 182 163 129 155 168 143 173 347 228 109 345 354 186 218 209 195 209 221 234 341 266 220 224 224 227 229 230 234 234
178 162 159 160 163 169 187 175 173 136 11 114 140 131 115 171 152 172 171 152 158 161 154 135 122 99 239 313 123 319 222 203 221 220 215 235 236 183 218 230 229 239 226 234 239
Wind_Speed_850mb
62 66 61 83 88 92 81 84 82 74 74 55 48 41 43 43 46 46 59 53 63 46 51 32 18 17 26 20 15 13 6 6 12 11 7 12 10 9 13 20 18 16 11 16 50
62 54 70 88 91 97 93 79 89 97 74 65 54 46 46 44 45 54 57 47 32 52 50 52 37 19 13 17 10 7 5 13 13 10 6 12 11 24 14 22 14 19 18 30 55
68 62 74 75 85 88 90 83 88 91 72 69 60 54 46 44 35 59 55 48 46 44 41 54 44 24 3 12 6 8 8 9 7 10 8 8 14 22 17 6 25 38 34 44 60
70 65 65 84 102 58 85 88 76 92 83 70 65 58 46 45 16 20 38 52 54 47 41 42 30 28 10 12 17 7 22 14 7 7 7 8 9 16 30 16 37 32 38 51 64
55 70 64 75 90 86 93 90 75 99 92 75 68 62 52 41 28 9 31 49 62 58 53 50 38 28 14 13 13 6 4 16 23 12 15 12 24 14 36 24 22 34 43 53 61
61 60 70 73 86 99 100 101 85 101 97 81 74 67 59 25 34 16 26 51 63 67 57 50 30 25 16 9 14 2 18 11 15 18 10 9 7 14 21 27 21 37 47 55 60
51 59 64 71 85 91 104 101 89 103 99 84 77 71 61 58 22 30 30 51 57 67 55 44 26 33 17 12 8 2 4 16 12 7 8 10 7 17 18 37 28 44 50 56 60
57 61 70 76 73 94 108 96 84 103 97 89 77 70 20 62 25 30 32 52 50 53 48 45 33 26 9 16 6 12 12 6 3 8 5 15 15 24 25 33 37 49 53 58 60
64 57 66 78 61 87 102 95 84 97 96 87 81 47 16 37 38 35 40 57 51 46 36 29 22 11 10 12 5 9 9 8 8 5 0 5 9 14 25 33 38 53 58 59 58
62 66 62 79 72 87 104 91 90 94 93 87 56 23 25 50 48 45 50 53 57 47 38 28 16 8 5 8 24 12 10 7 9 5 2 7 14 15 18 38 51 49 55 61 62
70 66 57 70 81 97 111 95 97 54 104 40 60 14 36 51 53 56 60 57 44 38 11 15 9 29 14 7 6 9 8 9 6 3 6 12 15 25 19 25 32 44 55 64 63
67 73 62 69 74 118 112 116 111 48 34 33 72 14 61 78 30 65 69 32 26 14 15 9 23 8 16 15 8 5 7 10 8 7 1 5 19 23 15 19 45 59 58 63 63
69 72 63 77 79 117 121 103 85 97 17 4 63 31 63 65 30 63 70 21 13 14 13 18 8 19 14 9 17 6 8 8 4 4 3 11 13 18 8 31 45 46 62 63 60
64 70 79 77 96 120 107 103 85 88 10 16 29 23 41 46 14 59 62 26 7 12 11 9 7 17 9 11 9 11 9 6 10 7 8 2 16 18 12 19 21 61 51 65 67
67 73 78 90 121 126 92 108 99 63 17 24 19 52 52 39 51 31 55 14 16 12 14 13 16 10 16 11 12 7 8 6 7 7 7 7 7 12 4 19 17 44 65 66 73
69 73 79 104 98 129 106 113 89 12 13 22 18 18 28 10 9 42 31 10 21 10 9 13 6 17 19 14 23 17 9 11 9 7 9 34 12 10 16 21 14 31 71 75 82
68 86 91 143 94 125 125 101 15 19 24 18 18 26 32 11 11 21 23 12 16 16 15 7 7 8 13 12 8 16 22 4 4 8 17 5 12 38 13 15 14 24 47 55 68
71 88 91 112 125 125 119 33 19 15 22 8 19 34 17 16 9 11 23 27 13 9 14 20 14 17 10 12 13 30 27 11 14 9 6 7 15 14 21 33 39 39 38 32 40
92 96 108 87 137 140 91 32 21 35 19 25 28 34 10 16 16 15 32 41 23 18 13 12 8 4 6 9 19 12 33 17 9 5 4 10 14 19 17 20 30 45 40 46 32
117 112 105 112 142 118 37 18 11 19 27 44 23 15 25 44 14 20 34 30 22 16 4 13 8 1 5 9 3 22 20 12 2 6 8 8 10 12 3 20 24 22 53 50 40
99 42 84 128 130 88 37 8 12 23 54 17 12 15 23 34 14 21 29 5 24 15 8 10 8 0 8 12 15 8 15 6 7 8 9 2 12 15 23 9 14 21 29 33 39
85 10 110 147 27 23 32 20 15 18 9 12 12 10 34 41 14 27 30 28 50 35 19 12 11 8 12 4 4 4 15 24 16 25 4 5 15 7 14 6 9 21 26 29 31
40 35 100 140 20 24 20 8 9 18 11 11 10 8 13 27 14 9 21 33 60 38 32 17 2 6 9 7 3 8 5 8 5 6 16 10 23 4 7 9 8 14 12 22 28
22 14 38 75 21 47 49 16 13 11 7 11 14 18 21 18 4 18 16 11 57 31 41 35 7 16 22 11 16 13 15 13 11 6 11 19 23 13 8 5 11 10 7 17 30
15 16 33 29 20 49 37 13 19 17 2 15 7 32 25 11 8 10 10 7 7 28 18 15 17 9 6 7 9 13 24 24 21 45 22 49 20 20 15 13 16 9 7 15 36
12 25 42 35 36 58 41 38 24 11 14 12 25 35 17 19 19 15 18 9 14 3 16 2 6 7 5 6 7 5 17 32 46 38 36 5 16 8 5 20 17 20 21 26 38
11 54 64 49 40 45 54 60 29 30 12 8 35 19 13 15 20 38 25 34 28 27 14 13 10 6 8 3 7 8 26 29 24 22 19 27 23 8 9 14 26 34 36 36 40
Wind_Direction_850mb
234 230 247 240 223 211 211 213 222 221 211 208 199 204 213 221 229 230 225 219 220 217 208 191 191 193 190 194 160 136 89 188 194 158 234 168 162 165 179 156 169 201 181 173 169
233 233 223 225 230 215 212 212 212 217 207 205 198 199 214 218 229 236 226 223 222 218 213 208 205 190 177 164 160 109 137 213 208 187 192 188 186 170 165 173 204 203 198 173 175
230 233 221 227 236 215 210 209 210 217 202 202 195 209 209 219 223 244 233 222 209 206 206 201 207 201 25 155 140 138 217 203 247 197 199 204 210 182 158 218 206 199 193 178 180
231 231 226 221 227 213 211 209 210 211 206 201 197 203 204 204 194 230 221 212 195 188 183 177 194 194 165 175 170 172 229 207 193 216 157 198 199 197 191 215 221 215 208 185 188
235 229 228 225 228 231 210 207 207 206 205 200 198 200 189 191 217 219 189 188 187 183 183 172 172 174 174 188 151 188 255 231 232 263 284 208 207 205 217 216 213 203 200 196 197
242 231 229 226 227 230 211 207 206 202 203 200 197 195 190 200 218 222 189 182 188 188 189 191 189 181 164 188 178 283 244 286 264 248 237 220 197 174 234 209 207 201 202 201 203
246 237 231 225 223 223 204 203 201 201 199 198 195 194 193 212 223 218 200 193 188 193 188 184 197 189 154 123 127 205 61 313 256 229 225 191 252 208 212 204 206 200 204 203 207
240 237 230 229 228 220 201 197 198 200 197 197 193 180 194 211 224 208 199 187 186 189 190 178 163 168 162 131 80 152 116 227 299 182 240 144 278 261 201 200 205 204 203 208 211
238 239 231 235 251 224 194 192 197 192 194 193 176 175 187 198 205 198 190 185 183 187 187 194 196 158 147 110 104 350 153 175 295 191 196 139 253 281 216 203 213 212 208 210 218
237 237 236 231 236 208 191 189 189 188 192 178 173 167 197 187 179 179 178 172 160 162 164 172 177 142 137 157 201 169 154 176 206 194 187 197 254 275 252 211 216 218 216 215 220
238 239 235 225 216 198 186 174 171 164 159 159 174 172 174 170 174 173 167 161 159 153 150 178 161 207 185 171 42 161 164 170 196 181 207 229 225 242 255 247 236 223 222 223 226
245 240 231 223 227 185 183 175 179 166 125 166 173 172 157 164 140 167 167 156 155 151 133 118 221 202 138 139 136 149 194 226 302 35 185 298 254 255 197 241 236 229 228 230 234
244 238 224 217 224 186 181 177 178 153 105 59 171 165 161 162 147 168 176 147 112 133 152 163 221 158 160 152 149 173 147 150 205 122 337 333 270 263 236 232 246 244 237 239 237
240 228 219 222 193 182 179 178 163 156 111 168 171 189 159 152 102 166 175 150 152 148 114 160 149 153 145 188 155 188 185 128 96 73 214 243 266 245 243 242 228 241 235 235 236
236 223 214 225 184 181 167 164 159 160 186 151 176 160 158 159 136 174 169 172 154 161 150 191 146 143 203 153 140 165 141 86 82 107 20 236 273 259 211 242 234 241 242 238 239
227 220 207 199 181 184 165 156 151 150 164 176 166 168 136 115 103 146 165 166 145 111 49 182 173 179 184 179 172 148 89 58 47 54 256 238 210 237 211 229 244 235 241 241 242
225 204 210 180 178 176 158 151 146 198 151 153 176 161 144 127 106 149 169 169 160 135 182 142 175 181 160 129 141 153 129 109 200 207 237 102 173 243 253 245 231 233 241 251 251
215 196 205 175 172 171 157 157 178 145 174 163 137 138 142 131 33 126 149 188 233 127 136 173 205 166 189 165 168 184 173 168 178 204 214 131 230 247 224 257 245 247 252 256 260
197 194 198 198 170 163 156 177 176 161 159 129 116 142 130 169 130 138 192 197 186 180 144 144 242 30 150 138 141 161 214 180 104 21 50 202 282 305 234 255 252 252 250 248 255
181 183 182 171 167 160 165 174 123 145 124 144 146 166 161 173 127 170 176 198 195 179 140 189 145 318 143 121 205 187 165 177 152 166 243 264 281 230 287 227 231 233 234 243 235
177 164 172 168 162 163 176 150 107 143 135 141 133 136 160 170 137 179 185 246 172 164 95 137 101 275 149 211 153 136 196 210 170 169 187 255 255 221 218 231 287 286 270 253 234
173 140 160 168 164 185 183 127 107 147 132 105 98 102 163 168 130 182 192 194 181 147 160 188 120 163 195 224 162 188 184 191 204 219 225 181 261 192 239 273 306 304 292 252 225
154 116 162 161 163 167 141 88 101 154 146 137 118 130 139 157 157 173 189 196 171 169 166 177 225 82 15 357 30 199 171 213 119 66 217 157 260 317 326 346 312 306 280 232 213
154 136 163 171 162 170 163 145 121 148 118 94 114 106 116 158 329 175 156 181 186 183 176 156 145 167 193 216 134 187 174 164 156 184 234 236 260 302 308 296 297 303 306 228 221
191 153 155 167 167 175 165 121 130 154 182 138 76 158 145 130 117 150 135 102 148 185 169 163 197 154 157 145 171 188 187 175 194 222 191 249 229 222 248 204 242 275 297 229 222
150 151 169 178 150 165 172 186 163 138 147 180 143 159 139 146 182 163 129 155 168 143 173 347 228 109 345 354 186 218 209 195 209 221 234 341 266 220 224 224 227 229 230 234 234
178 162 159 160 163 169 187 175 173 136 11 114 140 131 115 171 152 172 171 152 158 161 154 135 122 99 239 313 123 319 222 203 221 220 215 235 236 183 218 230 229 239 226 234 239